,,,PA_Meas_PMT16A,,PR_Meas_QMR101_102,,RH_Meas_QMH101,,SR_Meas_QMS101,,TA_Meas_QMH101,,GenWind,,GenWind,
date,time,status,PA,status,PR,status,RH,status,SR,status,TA,status,DirAvg,status,SpdAvg,
2009-07-22, 00:00:04,VALID,1005.69,VALID,0,VALID,89.6165,VALID,0,VALID,24.2078,VALID,353,VALID,0.523438,
2009-07-22, 00:01:04,VALID,1005.67,VALID,0,VALID,89.5478,VALID,0,VALID,24.2273,VALID,353,VALID,0.558594,
2009-07-22, 00:02:04,VALID,1005.7,VALID,0,VALID,89.7156,VALID,0,VALID,24.1884,VALID,353,VALID,0.514844,
2009-07-22, 00:03:04,VALID,1005.69,VALID,0,VALID,89.8606,VALID,0.100563,VALID,24.1689,VALID,352,VALID,0.486719,
2009-07-22, 00:04:04,VALID,1005.65,VALID,0,VALID,89.9674,VALID,0,VALID,24.13,VALID,352,VALID,0.537109,
2009-07-22, 00:05:04,VALID,1005.64,VALID,0,VALID,90.1047,VALID,0,VALID,24.091,VALID,350,VALID,0.499219,
2009-07-22, 00:06:04,VALID,1005.65,VALID,0,VALID,90.2268,VALID,0.100563,VALID,24.0929,VALID,345,VALID,0.479297,
2009-07-22, 00:07:04,VALID,1005.62,VALID,0,VALID,90.2802,VALID,0.100563,VALID,24.0308,VALID,344,VALID,0.426172,
2009-07-22, 00:08:04,VALID,1005.6,VALID,0,VALID,90.2802,VALID,0,VALID,24.0716,VALID,345,VALID,0.448828,
2009-07-22, 00:09:04,VALID,1005.59,VALID,0,VALID,90.242,VALID,0,VALID,24.1123,VALID,345,VALID,0.398438,
2009-07-22, 00:10:04,VALID,1005.6,VALID,0,VALID,90.1657,VALID,0,VALID,24.1123,VALID,349,VALID,0.409375,
2009-07-22, 00:11:04,VALID,1005.58,VALID,0,VALID,90.0971,VALID,0,VALID,24.0892,VALID,348,VALID,0.407031,
2009-07-22, 00:12:04,VALID,1005.56,VALID,0,VALID,90.1047,VALID,0.100563,VALID,24.0892,VALID,348,VALID,0.43125,
2009-07-22, 00:13:04,VALID,1005.55,VALID,0,VALID,90.0971,VALID,0,VALID,24.0929,VALID,348,VALID,0.123828,
2009-07-22, 00:14:04,VALID,1005.54,VALID,0,VALID,90.0666,VALID,0,VALID,24.1123,VALID,348,VALID,0.0828125,
2009-07-22, 00:15:04,VALID,1005.53,VALID,0,VALID,90.0437,VALID,0,VALID,24.0929,VALID,348,VALID,0,
2009-07-22, 00:16:04,VALID,1005.51,VALID,0,VALID,90.0589,VALID,0,VALID,24.0929,VALID,348,VALID,0.254687,
2009-07-22, 00:17:04,VALID,1005.52,VALID,0,VALID,90.0513,VALID,0,VALID,24.1123,VALID,349,VALID,0.433203,
2009-07-22, 00:18:04,VALID,1005.53,VALID,0,VALID,90.0284,VALID,0,VALID,24.1123,VALID,351,VALID,0.507813,
2009-07-22, 00:19:04,VALID,1005.49,VALID,0,VALID,90.0132,VALID,0,VALID,24.1123,VALID,351,VALID,0.566016,
2009-07-22, 00:20:04,VALID,1005.49,VALID,0,VALID,89.9521,VALID,0,VALID,24.1123,VALID,352,VALID,0.510547,
2009-07-22, 00:21:04,VALID,1005.47,VALID,0,VALID,89.8072,VALID,0,VALID,24.1123,VALID,342,VALID,0.526563,
2009-07-22, 00:22:04,VALID,1005.45,VALID,0,VALID,89.708,VALID,0,VALID,24.1318,VALID,341,VALID,0.469922,
2009-07-22, 00:23:04,VALID,1005.43,VALID,0,VALID,89.6317,VALID,0,VALID,24.1336,VALID,343,VALID,0.524219,
2009-07-22, 00:24:04,VALID,1005.44,VALID,0,VALID,89.6622,VALID,0,VALID,24.1336,VALID,341,VALID,0.477344,
2009-07-22, 00:25:04,VALID,1005.41,VALID,0,VALID,89.6851,VALID,0,VALID,24.0929,VALID,343,VALID,0.641797,
2009-07-22, 00:26:04,VALID,1005.42,VALID,0,VALID,89.6317,VALID,0,VALID,24.0929,VALID,347,VALID,0.437109,
2009-07-22, 00:27:04,VALID,1005.41,VALID,0,VALID,89.4868,VALID,0,VALID,24.1123,VALID,331,VALID,0.495703,
2009-07-22, 00:28:04,VALID,1005.36,VALID,0,VALID,89.441,VALID,0,VALID,24.13,VALID,340,VALID,0.523047,
2009-07-22, 00:29:04,VALID,1005.31,VALID,0,VALID,89.1282,VALID,0,VALID,24.1707,VALID,344,VALID,0.891406,
2009-07-22, 00:30:04,VALID,1005.27,VALID,0,VALID,88.8993,VALID,0,VALID,24.2486,VALID,339,VALID,0.677734,
2009-07-22, 00:31:04,VALID,1005.27,VALID,0,VALID,88.6934,VALID,0,VALID,24.2857,VALID,344,VALID,0.384766,
2009-07-22, 00:32:04,VALID,1005.25,VALID,0,VALID,88.5026,VALID,0,VALID,24.3265,VALID,340,VALID,0.849609,
2009-07-22, 00:33:04,VALID,1005.26,VALID,0,VALID,88.4111,VALID,0,VALID,24.3636,VALID,324,VALID,1.21406,
2009-07-22, 00:34:04,VALID,1005.21,VALID,0,VALID,88.2204,VALID,0,VALID,24.4025,VALID,305,VALID,0.749219,
2009-07-22, 00:35:04,VALID,1005.25,VALID,0,VALID,88.0144,VALID,0,VALID,24.4822,VALID,344,VALID,0.862109,
2009-07-22, 00:36:04,VALID,1005.23,VALID,0,VALID,87.9152,VALID,0,VALID,24.4804,VALID,319,VALID,0.743359,
2009-07-22, 00:37:04,VALID,1005.21,VALID,0,VALID,87.8313,VALID,0,VALID,24.4998,VALID,349,VALID,1.61172,
2009-07-22, 00:38:04,VALID,1005.22,VALID,0,VALID,87.7016,VALID,0.100563,VALID,24.5582,VALID,352,VALID,0.739453,
2009-07-22, 00:39:04,VALID,1005.21,VALID,0,VALID,87.5948,VALID,0,VALID,24.5582,VALID,352,VALID,0.442187,
2009-07-22, 00:40:04,VALID,1005.19,VALID,0,VALID,87.6635,VALID,0,VALID,24.5388,VALID,348,VALID,0.289063,
2009-07-22, 00:41:04,VALID,1005.19,VALID,0,VALID,87.5719,VALID,0,VALID,24.5582,VALID,350,VALID,0.506641,
2009-07-22, 00:42:04,VALID,1005.2,VALID,0,VALID,87.5261,VALID,0,VALID,24.5796,VALID,342,VALID,1.10195,
2009-07-22, 00:43:04,VALID,1005.19,VALID,0,VALID,87.5109,VALID,0,VALID,24.5796,VALID,338,VALID,0.576563,
2009-07-22, 00:44:04,VALID,1005.21,VALID,0,VALID,87.6024,VALID,0,VALID,24.5601,VALID,338,VALID,0.818359,
2009-07-22, 00:45:04,VALID,1005.19,VALID,0,VALID,87.5948,VALID,0,VALID,24.5814,VALID,320,VALID,0.476172,
2009-07-22, 00:46:04,VALID,1005.14,VALID,0,VALID,87.6101,VALID,0,VALID,24.5814,VALID,346,VALID,0.748438,
2009-07-22, 00:47:04,VALID,1005.15,VALID,0,VALID,87.694,VALID,0,VALID,24.5814,VALID,343,VALID,0.754687,
2009-07-22, 00:48:04,VALID,1005.15,VALID,0,VALID,87.6863,VALID,0,VALID,24.5388,VALID,271,VALID,0.467578,
2009-07-22, 00:49:04,VALID,1005.13,VALID,0,VALID,87.549,VALID,0,VALID,24.5601,VALID,344,VALID,1.44102,
2009-07-22, 00:50:04,VALID,1005.15,VALID,0,VALID,87.3736,VALID,0,VALID,24.6185,VALID,344,VALID,0.846875,
2009-07-22, 00:51:04,VALID,1005.12,VALID,0,VALID,87.3507,VALID,0,VALID,24.6185,VALID,359,VALID,0.786719,
2009-07-22, 00:52:04,VALID,1005.1,VALID,0,VALID,87.3965,VALID,0,VALID,24.6398,VALID,357,VALID,0.637891,
2009-07-22, 00:53:04,VALID,1005.09,VALID,0,VALID,87.3812,VALID,0,VALID,24.6185,VALID,1,VALID,1.19531,
2009-07-22, 00:54:04,VALID,1005.07,VALID,0,VALID,87.4041,VALID,0,VALID,24.6593,VALID,309,VALID,0.316016,
2009-07-22, 00:55:04,VALID,1005.01,VALID,0,VALID,87.4651,VALID,0,VALID,24.638,VALID,333,VALID,0.604297,
2009-07-22, 00:56:04,VALID,1005.02,VALID,0,VALID,87.5414,VALID,0,VALID,24.6398,VALID,349,VALID,0.964844,
2009-07-22, 00:57:04,VALID,1005.02,VALID,0,VALID,87.6863,VALID,0,VALID,24.6204,VALID,348,VALID,0.836719,
2009-07-22, 00:58:04,VALID,1004.99,VALID,0,VALID,87.8008,VALID,0.100563,VALID,24.599,VALID,348,VALID,0.627344,
2009-07-22, 00:59:04,VALID,1005,VALID,0,VALID,87.6863,VALID,0.100563,VALID,24.5777,VALID,354,VALID,1.07617,
2009-07-22, 01:00:04,VALID,1004.98,VALID,0,VALID,87.7092,VALID,0.100563,VALID,24.5777,VALID,338,VALID,0.484375,
2009-07-22, 01:01:04,VALID,1005,VALID,0,VALID,87.7169,VALID,0,VALID,24.5796,VALID,360,VALID,0.864844,
2009-07-22, 01:02:04,VALID,1005.01,VALID,0,VALID,87.7398,VALID,0.100563,VALID,24.5388,VALID,353,VALID,0.74375,
2009-07-22, 01:03:04,VALID,1005,VALID,0,VALID,87.6024,VALID,0,VALID,24.5193,VALID,352,VALID,0.996484,
2009-07-22, 01:04:04,VALID,1005.02,VALID,0,VALID,87.6024,VALID,0,VALID,24.5193,VALID,351,VALID,0.627344,
2009-07-22, 01:05:04,VALID,1005.01,VALID,0,VALID,87.4651,VALID,0.100563,VALID,24.5193,VALID,10,VALID,0.499219,
2009-07-22, 01:06:04,VALID,1004.98,VALID,0,VALID,87.343,VALID,0,VALID,24.5193,VALID,355,VALID,0.703516,
2009-07-22, 01:07:04,VALID,1004.98,VALID,0,VALID,87.2515,VALID,0.100563,VALID,24.5193,VALID,13,VALID,0.696094,
2009-07-22, 01:08:04,VALID,1004.99,VALID,0,VALID,87.1676,VALID,0.100563,VALID,24.5193,VALID,340,VALID,0.739062,
2009-07-22, 01:09:04,VALID,1004.96,VALID,0,VALID,87.1981,VALID,0.100563,VALID,24.5406,VALID,347,VALID,0.679688,
2009-07-22, 01:10:04,VALID,1004.98,VALID,0,VALID,87.16,VALID,0,VALID,24.5388,VALID,346,VALID,0.577734,
2009-07-22, 01:11:04,VALID,1004.96,VALID,0,VALID,87.1371,VALID,0.100563,VALID,24.5388,VALID,350,VALID,0.950781,
2009-07-22, 01:12:04,VALID,1004.96,VALID,0,VALID,87.16,VALID,0.100563,VALID,24.5796,VALID,345,VALID,0.576563,
2009-07-22, 01:13:04,VALID,1004.98,VALID,0,VALID,87.1523,VALID,0,VALID,24.5582,VALID,345,VALID,0.554688,
2009-07-22, 01:14:04,VALID,1004.98,VALID,0,VALID,87.2439,VALID,0,VALID,24.5388,VALID,346,VALID,1.15781,
2009-07-22, 01:15:04,VALID,1004.95,VALID,0,VALID,87.2896,VALID,0,VALID,24.5388,VALID,342,VALID,0.891016,
2009-07-22, 01:16:04,VALID,1004.94,VALID,0,VALID,87.343,VALID,0.100563,VALID,24.5582,VALID,346,VALID,0.491406,
2009-07-22, 01:17:04,VALID,1004.96,VALID,0,VALID,87.282,VALID,0.100563,VALID,24.5582,VALID,340,VALID,0.605859,
2009-07-22, 01:18:04,VALID,1004.94,VALID,0,VALID,87.2515,VALID,0.100563,VALID,24.5582,VALID,333,VALID,0.470313,
2009-07-22, 01:19:04,VALID,1004.93,VALID,0,VALID,87.2591,VALID,0.100563,VALID,24.5777,VALID,358,VALID,0.769922,
2009-07-22, 01:20:04,VALID,1004.96,VALID,0,VALID,87.3583,VALID,0.100563,VALID,24.5582,VALID,343,VALID,0.737109,
2009-07-22, 01:21:04,VALID,1004.95,VALID,0,VALID,87.3736,VALID,0.100563,VALID,24.5564,VALID,353,VALID,0.631641,
2009-07-22, 01:22:04,VALID,1004.96,VALID,0,VALID,87.3659,VALID,0,VALID,24.5972,VALID,344,VALID,0.624219,
2009-07-22, 01:23:04,VALID,1004.94,VALID,0,VALID,87.343,VALID,0.100563,VALID,24.5972,VALID,353,VALID,0.742188,
2009-07-22, 01:24:04,VALID,1004.94,VALID,0,VALID,87.2744,VALID,0.100563,VALID,24.5758,VALID,352,VALID,0.608203,
2009-07-22, 01:25:04,VALID,1004.94,VALID,0,VALID,87.343,VALID,0,VALID,24.5972,VALID,352,VALID,0.823047,
2009-07-22, 01:26:04,VALID,1004.96,VALID,0,VALID,87.427,VALID,0.100563,VALID,24.5972,VALID,354,VALID,0.653516,
2009-07-22, 01:27:04,VALID,1004.94,VALID,0,VALID,87.427,VALID,0.100563,VALID,24.5777,VALID,341,VALID,0.49375,
2009-07-22, 01:28:04,VALID,1004.95,VALID,0,VALID,87.4499,VALID,0.100563,VALID,24.5777,VALID,344,VALID,0.967578,
2009-07-22, 01:29:04,VALID,1004.95,VALID,0,VALID,87.4422,VALID,0.100563,VALID,24.5777,VALID,349,VALID,0.290625,
2009-07-22, 01:30:04,VALID,1004.95,VALID,0,VALID,87.282,VALID,0,VALID,24.5777,VALID,14,VALID,0.414844,
2009-07-22, 01:31:04,VALID,1004.97,VALID,0,VALID,87.1828,VALID,0,VALID,24.5972,VALID,350,VALID,0.694531,
2009-07-22, 01:32:04,VALID,1004.98,VALID,0,VALID,87.1371,VALID,0,VALID,24.5972,VALID,349,VALID,0.7125,
2009-07-22, 01:33:04,VALID,1004.96,VALID,0,VALID,87.1294,VALID,0,VALID,24.5972,VALID,343,VALID,1.03867,
2009-07-22, 01:34:04,VALID,1004.98,VALID,0,VALID,87.2439,VALID,0,VALID,24.5777,VALID,348,VALID,0.523047,
2009-07-22, 01:35:04,VALID,1004.95,VALID,0,VALID,87.2896,VALID,0.100563,VALID,24.5582,VALID,348,VALID,0.373047,
2009-07-22, 01:36:04,VALID,1004.98,VALID,0,VALID,87.4041,VALID,0,VALID,24.5193,VALID,348,VALID,0.195313,
2009-07-22, 01:37:04,VALID,1004.96,VALID,0,VALID,87.4956,VALID,0.100563,VALID,24.4998,VALID,341,VALID,0.514063,
2009-07-22, 01:38:04,VALID,1004.95,VALID,0,VALID,87.6101,VALID,0,VALID,24.4804,VALID,339,VALID,0.824219,
2009-07-22, 01:39:04,VALID,1004.94,VALID,0,VALID,87.7169,VALID,0,VALID,24.4609,VALID,336,VALID,0.410547,
2009-07-22, 01:40:04,VALID,1004.92,VALID,0,VALID,87.8542,VALID,0,VALID,24.4414,VALID,336,VALID,0.5,
2009-07-22, 01:41:04,VALID,1004.9,VALID,0,VALID,87.9686,VALID,0,VALID,24.4628,VALID,342,VALID,0.452734,
2009-07-22, 01:42:04,VALID,1004.92,VALID,0,VALID,88.1593,VALID,0,VALID,24.4025,VALID,343,VALID,0.569922,
2009-07-22, 01:43:04,VALID,1004.89,VALID,0,VALID,88.3272,VALID,0.100563,VALID,24.383,VALID,339,VALID,0.546094,
2009-07-22, 01:44:04,VALID,1004.89,VALID,0,VALID,88.3806,VALID,0,VALID,24.3636,VALID,344,VALID,0.598437,
2009-07-22, 01:45:04,VALID,1004.85,VALID,0,VALID,88.2814,VALID,0.100563,VALID,24.422,VALID,351,VALID,0.749609,
2009-07-22, 01:46:04,VALID,1004.85,VALID,0,VALID,88.2051,VALID,0.100563,VALID,24.422,VALID,359,VALID,0.874609,
2009-07-22, 01:47:04,VALID,1004.86,VALID,0,VALID,88.1288,VALID,0.100563,VALID,24.4006,VALID,357,VALID,0.46875,
2009-07-22, 01:48:04,VALID,1004.85,VALID,0,VALID,88.1212,VALID,0.100563,VALID,24.422,VALID,342,VALID,0.462891,
2009-07-22, 01:49:04,VALID,1004.84,VALID,0,VALID,88.2356,VALID,0.100563,VALID,24.3617,VALID,344,VALID,0.762109,
2009-07-22, 01:50:04,VALID,1004.85,VALID,0,VALID,88.3501,VALID,0,VALID,24.383,VALID,351,VALID,0.611719,
2009-07-22, 01:51:04,VALID,1004.87,VALID,0,VALID,88.3577,VALID,0,VALID,24.3636,VALID,337,VALID,0.902344,
2009-07-22, 01:52:04,VALID,1004.86,VALID,0,VALID,88.4111,VALID,0.100563,VALID,24.3636,VALID,334,VALID,0.586328,
2009-07-22, 01:53:04,VALID,1004.85,VALID,0,VALID,88.5026,VALID,0.100563,VALID,24.3441,VALID,350,VALID,0.848047,
2009-07-22, 01:54:04,VALID,1004.83,VALID,0,VALID,88.4721,VALID,0.100563,VALID,24.3636,VALID,352,VALID,0.471094,
2009-07-22, 01:55:04,VALID,1004.82,VALID,0,VALID,88.4721,VALID,0.100563,VALID,24.3422,VALID,309,VALID,0.565234,
2009-07-22, 01:56:04,VALID,1004.8,VALID,0,VALID,88.4569,VALID,0.100563,VALID,24.3422,VALID,335,VALID,0.891016,
2009-07-22, 01:57:04,VALID,1004.79,VALID,0,VALID,88.3882,VALID,0.100563,VALID,24.383,VALID,353,VALID,0.96875,
2009-07-22, 01:58:04,VALID,1004.78,VALID,0,VALID,88.289,VALID,0,VALID,24.4043,VALID,332,VALID,0.925,
2009-07-22, 01:59:04,VALID,1004.78,VALID,0,VALID,88.1059,VALID,0,VALID,24.422,VALID,360,VALID,0.786719,
2009-07-22, 02:00:04,VALID,1004.77,VALID,0,VALID,87.9,VALID,0,VALID,24.4414,VALID,343,VALID,0.839453,
2009-07-22, 02:01:04,VALID,1004.79,VALID,0,VALID,87.7703,VALID,0,VALID,24.5017,VALID,347,VALID,0.811328,
2009-07-22, 02:02:04,VALID,1004.8,VALID,0,VALID,87.6329,VALID,0,VALID,24.5406,VALID,343,VALID,0.522656,
2009-07-22, 02:03:04,VALID,1004.8,VALID,0,VALID,87.5033,VALID,0,VALID,24.5814,VALID,8,VALID,0.339063,
2009-07-22, 02:04:04,VALID,1004.82,VALID,0,VALID,87.4651,VALID,0,VALID,24.5406,VALID,353,VALID,0.59375,
2009-07-22, 02:05:04,VALID,1004.82,VALID,0,VALID,87.5261,VALID,0,VALID,24.5406,VALID,345,VALID,0.721094,
2009-07-22, 02:06:04,VALID,1004.82,VALID,0,VALID,87.5719,VALID,0,VALID,24.5193,VALID,346,VALID,0.721484,
2009-07-22, 02:07:04,VALID,1004.82,VALID,0,VALID,87.5414,VALID,0,VALID,24.5406,VALID,344,VALID,0.965625,
2009-07-22, 02:08:04,VALID,1004.83,VALID,0,VALID,87.5414,VALID,0,VALID,24.5406,VALID,342,VALID,0.702734,
2009-07-22, 02:09:04,VALID,1004.79,VALID,0,VALID,87.549,VALID,0,VALID,24.5388,VALID,334,VALID,1.39336,
2009-07-22, 02:10:04,VALID,1004.79,VALID,0,VALID,87.5033,VALID,0.100563,VALID,24.5582,VALID,352,VALID,0.900781,
2009-07-22, 02:11:04,VALID,1004.77,VALID,0,VALID,87.5567,VALID,0,VALID,24.5601,VALID,321,VALID,1.19141,
2009-07-22, 02:12:04,VALID,1004.79,VALID,0,VALID,87.5567,VALID,0,VALID,24.5582,VALID,355,VALID,1.1707,
2009-07-22, 02:13:04,VALID,1004.76,VALID,0,VALID,87.5185,VALID,0,VALID,24.599,VALID,354,VALID,0.718359,
2009-07-22, 02:14:04,VALID,1004.74,VALID,0,VALID,87.4346,VALID,0,VALID,24.638,VALID,321,VALID,1.28906,
2009-07-22, 02:15:04,VALID,1004.74,VALID,0,VALID,87.3888,VALID,0,VALID,24.6593,VALID,15,VALID,0.337109,
2009-07-22, 02:16:04,VALID,1004.7,VALID,0,VALID,87.3965,VALID,0,VALID,24.638,VALID,346,VALID,0.350391,
2009-07-22, 02:17:04,VALID,1004.7,VALID,0,VALID,87.4575,VALID,0,VALID,24.638,VALID,22,VALID,0.633594,
2009-07-22, 02:18:04,VALID,1004.7,VALID,0,VALID,87.5185,VALID,0,VALID,24.6185,VALID,349,VALID,0.689453,
2009-07-22, 02:19:04,VALID,1004.67,VALID,0,VALID,87.5033,VALID,0,VALID,24.599,VALID,351,VALID,0.923047,
2009-07-22, 02:20:04,VALID,1004.65,VALID,0,VALID,87.4041,VALID,0,VALID,24.599,VALID,354,VALID,1.24609,
2009-07-22, 02:21:04,VALID,1004.66,VALID,0,VALID,87.2668,VALID,0,VALID,24.6185,VALID,351,VALID,1.73711,
2009-07-22, 02:22:04,VALID,1004.65,VALID,0,VALID,87.1066,VALID,0,VALID,24.6574,VALID,337,VALID,0.943359,
2009-07-22, 02:23:04,VALID,1004.63,VALID,0,VALID,86.9235,VALID,0,VALID,24.6574,VALID,6,VALID,1.19609,
2009-07-22, 02:24:04,VALID,1004.64,VALID,0,VALID,86.9082,VALID,0,VALID,24.6769,VALID,354,VALID,0.782812,
2009-07-22, 02:25:04,VALID,1004.61,VALID,0,VALID,86.8929,VALID,0,VALID,24.6769,VALID,331,VALID,1.06523,
2009-07-22, 02:26:04,VALID,1004.63,VALID,0,VALID,86.9158,VALID,0,VALID,24.6556,VALID,343,VALID,1.25664,
2009-07-22, 02:27:04,VALID,1004.62,VALID,0,VALID,86.8701,VALID,0,VALID,24.6769,VALID,348,VALID,1.06055,
2009-07-22, 02:28:04,VALID,1004.61,VALID,0,VALID,86.8395,VALID,0.100563,VALID,24.6945,VALID,338,VALID,0.264062,
2009-07-22, 02:29:04,VALID,1004.6,VALID,0,VALID,86.8472,VALID,0.100563,VALID,24.675,VALID,338,VALID,0.673047,
2009-07-22, 02:30:04,VALID,1004.61,VALID,0,VALID,86.9387,VALID,0.100563,VALID,24.6945,VALID,358,VALID,1.10547,
2009-07-22, 02:31:04,VALID,1004.63,VALID,0,VALID,86.9692,VALID,0.100563,VALID,24.6945,VALID,1,VALID,1.29844,
2009-07-22, 02:32:04,VALID,1004.64,VALID,0,VALID,86.9387,VALID,0.100563,VALID,24.6945,VALID,340,VALID,0.969531,
2009-07-22, 02:33:04,VALID,1004.66,VALID,0,VALID,86.9616,VALID,0.100563,VALID,24.714,VALID,351,VALID,1.87383,
2009-07-22, 02:34:04,VALID,1004.66,VALID,0,VALID,86.809,VALID,0.100563,VALID,24.7335,VALID,354,VALID,1.44102,
2009-07-22, 02:35:04,VALID,1004.66,VALID,0,VALID,86.6488,VALID,0.100563,VALID,24.7724,VALID,1,VALID,2.18125,
2009-07-22, 02:36:04,VALID,1004.7,VALID,0,VALID,86.7022,VALID,0.100563,VALID,24.7919,VALID,355,VALID,1.38711,
2009-07-22, 02:37:04,VALID,1004.7,VALID,0,VALID,86.5649,VALID,0,VALID,24.7919,VALID,349,VALID,1.40234,
2009-07-22, 02:38:04,VALID,1004.69,VALID,0,VALID,86.5802,VALID,0,VALID,24.8113,VALID,327,VALID,0.657031,
2009-07-22, 02:39:04,VALID,1004.73,VALID,0,VALID,86.5802,VALID,0.100563,VALID,24.8113,VALID,345,VALID,0.6375,
2009-07-22, 02:40:04,VALID,1004.72,VALID,0,VALID,86.3971,VALID,0.100563,VALID,24.8308,VALID,339,VALID,0.908594,
2009-07-22, 02:41:04,VALID,1004.72,VALID,0,VALID,86.3971,VALID,0,VALID,24.8095,VALID,2,VALID,1.74531,
2009-07-22, 02:42:04,VALID,1004.72,VALID,0,VALID,86.4734,VALID,0.100563,VALID,24.8308,VALID,343,VALID,0.433594,
2009-07-22, 02:43:04,VALID,1004.71,VALID,0,VALID,86.4276,VALID,0,VALID,24.8113,VALID,1,VALID,1.0957,
2009-07-22, 02:44:04,VALID,1004.71,VALID,0,VALID,86.4276,VALID,0,VALID,24.8113,VALID,338,VALID,0.808203,
2009-07-22, 02:45:04,VALID,1004.74,VALID,0,VALID,86.4886,VALID,0,VALID,24.7919,VALID,318,VALID,0.501953,
2009-07-22, 02:46:04,VALID,1004.71,VALID,0,VALID,86.4734,VALID,0,VALID,24.7919,VALID,338,VALID,1.57539,
2009-07-22, 02:47:04,VALID,1004.73,VALID,0,VALID,86.5268,VALID,0.100563,VALID,24.8113,VALID,350,VALID,1.06094,
2009-07-22, 02:48:04,VALID,1004.68,VALID,0,VALID,86.4657,VALID,0,VALID,24.7919,VALID,339,VALID,1.28867,
2009-07-22, 02:49:04,VALID,1004.69,VALID,0,VALID,86.542,VALID,0.100563,VALID,24.7919,VALID,342,VALID,1.00742,
2009-07-22, 02:50:04,VALID,1004.67,VALID,0,VALID,86.6107,VALID,0.100563,VALID,24.751,VALID,3,VALID,1.18398,
2009-07-22, 02:51:04,VALID,1004.65,VALID,0,VALID,86.6641,VALID,0.100563,VALID,24.7724,VALID,344,VALID,1.08164,
2009-07-22, 02:52:04,VALID,1004.62,VALID,0,VALID,86.6412,VALID,0,VALID,24.7529,VALID,344,VALID,1.41523,
2009-07-22, 02:53:04,VALID,1004.63,VALID,0,VALID,86.5802,VALID,0.100563,VALID,24.8113,VALID,356,VALID,1.67422,
2009-07-22, 02:54:04,VALID,1004.63,VALID,0,VALID,86.5268,VALID,0,VALID,24.8113,VALID,3,VALID,1.34883,
2009-07-22, 02:55:04,VALID,1004.66,VALID,0,VALID,86.5039,VALID,0,VALID,24.8113,VALID,351,VALID,0.957422,
2009-07-22, 02:56:04,VALID,1004.64,VALID,0,VALID,86.5268,VALID,0.100563,VALID,24.79,VALID,345,VALID,0.819141,
2009-07-22, 02:57:04,VALID,1004.62,VALID,0,VALID,86.6107,VALID,0.100563,VALID,24.7919,VALID,350,VALID,0.996094,
2009-07-22, 02:58:04,VALID,1004.63,VALID,0,VALID,86.687,VALID,0,VALID,24.7919,VALID,16,VALID,1.07852,
2009-07-22, 02:59:04,VALID,1004.65,VALID,0,VALID,86.7938,VALID,0,VALID,24.7724,VALID,6,VALID,0.719531,
2009-07-22, 03:00:04,VALID,1004.66,VALID,0,VALID,86.8853,VALID,0.100563,VALID,24.7937,VALID,336,VALID,0.633594,
2009-07-22, 03:01:04,VALID,1004.68,VALID,0,VALID,87.0074,VALID,0,VALID,24.7743,VALID,344,VALID,0.8125,
2009-07-22, 03:02:04,VALID,1004.66,VALID,0,VALID,87.1066,VALID,0,VALID,24.7335,VALID,36,VALID,1.0707,
2009-07-22, 03:03:04,VALID,1004.64,VALID,0,VALID,87.1905,VALID,0.100563,VALID,24.714,VALID,12,VALID,0.664844,
2009-07-22, 03:04:04,VALID,1004.65,VALID,0,VALID,87.2439,VALID,0.100563,VALID,24.714,VALID,9,VALID,0.330469,
2009-07-22, 03:05:04,VALID,1004.65,VALID,0,VALID,87.3278,VALID,0.100563,VALID,24.6945,VALID,5,VALID,0.330859,
2009-07-22, 03:06:04,VALID,1004.63,VALID,0,VALID,87.4499,VALID,0.100563,VALID,24.6556,VALID,5,VALID,0.200391,
2009-07-22, 03:07:04,VALID,1004.61,VALID,0,VALID,87.5109,VALID,0,VALID,24.6166,VALID,5,VALID,0.289844,
2009-07-22, 03:08:04,VALID,1004.62,VALID,0,VALID,87.6863,VALID,0.100563,VALID,24.5972,VALID,5,VALID,0.548437,
2009-07-22, 03:09:04,VALID,1004.6,VALID,0,VALID,87.8084,VALID,0,VALID,24.599,VALID,32,VALID,0.529297,
2009-07-22, 03:10:04,VALID,1004.63,VALID,0,VALID,87.9152,VALID,0,VALID,24.5388,VALID,354,VALID,0.509375,
2009-07-22, 03:11:04,VALID,1004.64,VALID,0,VALID,87.9915,VALID,0,VALID,24.5388,VALID,337,VALID,0.635156,
2009-07-22, 03:12:04,VALID,1004.66,VALID,0,VALID,88.0296,VALID,0.100563,VALID,24.5193,VALID,346,VALID,0.332422,
2009-07-22, 03:13:04,VALID,1004.64,VALID,0,VALID,88.0983,VALID,0.100563,VALID,24.4804,VALID,342,VALID,0.438281,
2009-07-22, 03:14:04,VALID,1004.59,VALID,0,VALID,88.2433,VALID,0,VALID,24.4804,VALID,336,VALID,0.35625,
2009-07-22, 03:15:04,VALID,1004.6,VALID,0,VALID,88.3348,VALID,0.100563,VALID,24.4804,VALID,293,VALID,0.570313,
2009-07-22, 03:16:04,VALID,1004.57,VALID,0,VALID,88.2967,VALID,0,VALID,24.4998,VALID,346,VALID,0.816797,
2009-07-22, 03:17:04,VALID,1004.58,VALID,0,VALID,88.228,VALID,0.100563,VALID,24.5193,VALID,347,VALID,0.539453,
2009-07-22, 03:18:04,VALID,1004.57,VALID,0,VALID,88.1365,VALID,0,VALID,24.4804,VALID,346,VALID,0.025,
2009-07-22, 03:19:04,VALID,1004.54,VALID,0,VALID,88.1899,VALID,0.100563,VALID,24.5017,VALID,346,VALID,0.0292969,
2009-07-22, 03:20:04,VALID,1004.54,VALID,0,VALID,88.289,VALID,0,VALID,24.4414,VALID,346,VALID,0.433984,
2009-07-22, 03:21:04,VALID,1004.55,VALID,0,VALID,88.5255,VALID,0,VALID,24.4025,VALID,347,VALID,0.715625,
2009-07-22, 03:22:04,VALID,1004.52,VALID,0,VALID,88.6094,VALID,0,VALID,24.4025,VALID,344,VALID,0.280078,
2009-07-22, 03:23:04,VALID,1004.53,VALID,0,VALID,88.6323,VALID,0.100563,VALID,24.4238,VALID,344,VALID,0.560547,
2009-07-22, 03:24:04,VALID,1004.55,VALID,0,VALID,88.6094,VALID,0,VALID,24.383,VALID,344,VALID,0.335156,
2009-07-22, 03:25:04,VALID,1004.53,VALID,0,VALID,88.7544,VALID,0,VALID,24.3246,VALID,344,VALID,0.336328,
2009-07-22, 03:26:04,VALID,1004.53,VALID,0,VALID,88.9604,VALID,0.100563,VALID,24.2875,VALID,344,VALID,0.392578,
2009-07-22, 03:27:04,VALID,1004.56,VALID,0,VALID,89.2198,VALID,0.100563,VALID,24.2097,VALID,344,VALID,0.272656,
2009-07-22, 03:28:04,VALID,1004.53,VALID,0,VALID,89.5173,VALID,0,VALID,24.1494,VALID,344,VALID,0.335547,
2009-07-22, 03:29:04,VALID,1004.51,VALID,0,VALID,89.7309,VALID,0.100563,VALID,24.0716,VALID,344,VALID,0.271484,
2009-07-22, 03:30:04,VALID,1004.53,VALID,0,VALID,90.1276,VALID,0,VALID,23.9937,VALID,344,VALID,0.232812,
2009-07-22, 03:31:04,VALID,1004.52,VALID,0,VALID,90.4099,VALID,0,VALID,23.9548,VALID,344,VALID,0,
2009-07-22, 03:32:04,VALID,1004.52,VALID,0,VALID,90.7074,VALID,0,VALID,23.9177,VALID,344,VALID,0.101563,
2009-07-22, 03:33:04,VALID,1004.48,VALID,0,VALID,90.8981,VALID,0.100563,VALID,23.8769,VALID,344,VALID,0.242578,
2009-07-22, 03:34:04,VALID,1004.53,VALID,0,VALID,91.1422,VALID,0.100563,VALID,23.838,VALID,344,VALID,0.169922,
2009-07-22, 03:35:04,VALID,1004.53,VALID,0,VALID,91.1804,VALID,0,VALID,23.8398,VALID,344,VALID,0.307813,
2009-07-22, 03:36:04,VALID,1004.55,VALID,0,VALID,91.2262,VALID,0,VALID,23.7991,VALID,344,VALID,0.201172,
2009-07-22, 03:37:04,VALID,1004.52,VALID,0,VALID,91.3864,VALID,0,VALID,23.7601,VALID,344,VALID,0,
2009-07-22, 03:38:04,VALID,1004.54,VALID,0,VALID,91.4016,VALID,0.100563,VALID,23.7407,VALID,344,VALID,0.35625,
2009-07-22, 03:39:04,VALID,1004.55,VALID,0,VALID,91.3787,VALID,0.100563,VALID,23.7035,VALID,344,VALID,0,
2009-07-22, 03:40:04,VALID,1004.53,VALID,0,VALID,91.5008,VALID,0,VALID,23.6239,VALID,344,VALID,0,